Location: Niedergestelen
(46.3129°N, 7.7822°E)
Time: 20:56:19
(UTC+00:00)

BREEZE-M DEB (TANK) - Pass Details

Date: 01 December 2020
Orbit: 433 x 13849 km, 45.9° (Epoch: 27 January)

Event Time Altitude Azimuth Distance (km) Brightness Sun altitude
Rises 17:37:13 0° 224° (SW) 3,516 7.4 -18.9°
Reaches altitude 10° 17:40:35 10° 211° (SSW) 1,932 5.7 -19.4°
Enters shadow 17:43:24 23° 159° (SSE) 1,013 3.5 -19.9°
